Weather in Dunkerque

France     51°01′46″N   2°22′49″E
temp.,
°C
wind,
m/s
gust,
m/s
humid.,
%
clouds,
%
prec.,
mm/h
press.,
hPa
HPBL,
m
6 may, thu
thu623:00+6wnw4686100 0.6 1010385
02:00+5wsw3490100 1.1 1009193
05:00+4sw3488100 0.4 1008184
08:00+5sw3484100 0.4 1007174
11:00+9sw3465100 0.1 1006889
14:00+9wnw2364100 0.6 1005909
17:00+8nw1369100 1.1 1004579
20:00+8nw467298 1.3 1005568
7 may, fri
fri723:00+6w46760 0.1 1008369
02:00+5w69790 0.1 1009471
05:00+5w7108168 0.0 1011568
08:00+6wnw797693 0.1 10131107
11:00+7nw567547 0.1 1016854
14:00+8nw56642 0.1 1018835
17:00+9nw356311 0.0 1018854
20:00+10w466918 0.1 1018324
8 may, sat
sat823:00+6sw3478100 0.0 101996
02:00+4sse3476100 0.0 101769
05:00+4sse51073100 0.0 1015198
08:00+7sse71473100 0.0 1013393
11:00+8sse81787100 1.2 1011696
14:00+9s101890100 3.3 1008587
17:00+15s91783100 0.3 1006858
20:00+17ssw814755 0.3 1005583
9 may, sun
sun923:00+13s613887 0.0 1004251
02:00+12s61291100 0.0 1003207
05:00+14sse61388100 0.0 1000279
08:00+13s61393100 1.0 999357
11:00+17s81485100 1.3 998682
14:00+20ssw91368100 1.5 9981100
17:00+19ssw81476100 1.1 9971078
20:00+16sw71282100 4.9 998394
10 may, mon
mon1023:00+13ssw5995100 2.0 999214
02:00+12s61291100 2.1 1001417
05:00+10ssw61290100 0.0 1001482
08:00+11ssw8138691 0.0 1004882
11:00+13sw812675 0.1 10061024
14:00+15sw810546 0.1 10071379
17:00+14w4662100 0.0 1007848
20:00+12n1278100 0.0 100734